[[{"header":{"parameterUnit":"m.s-1","parameterCategory":1,"la1":30.2991,"la2":30.254,"lo1":-89.0895,"lo2":-89.0444,"dy":0.0017,"dx":0.0017,"nx":28,"ny":28,"refTime":"2025-04-26T21:00:00:Z","depth":0,"parameterNumber":2,"parameterNumberName":"U-component_of_WINDS"},"data":[0,0,0,0,0,0,0,0,0,0,0,0,0,0,0,0,0,0,0,0,0,0,0,0,0,0,0,0,0,0,0,0,0,0,0,0,0,0,0,0,0,0,0,0,0,0,0,0,0,0,0,0,0,0,0,0,0,0,0.3938,0.3938,0,0.3952,0.3952,0.3952,0.3892,0.389,0.3889,0.3887,0.3905,0.3907,0.3909,0,0,0,0,0,0,0,0,0,0,0,0,0,0.3862,0.3864,0.3938,0.3938,0.3938,0.3952,0.3952,0.3952,0.3892,0.389,0.3888,0.3886,0.3904,0.3907,0.3909,0,0,0,0,0,0,0,0,0,0,0,0,0,0.3888,0.3864,0.3938,0.391,0.3908,0.3952,0.3952,0.3952,0.3893,0.389,0.3888,0.3885,0.3903,0.3906,0.3909,0.3982,0,0,0.3919,0.392,0,0,0,0,0,0,0,0,0.3886,0.389,0.3914,0.3912,0.3909,0.3917,0.3932,0.3962,0.3894,0.3899,0.3887,0.3884,0.3911,0.3914,0.3922,0.3983,0.3983,0.3919,0.3921,0.3923,0.3924,0,0,0,0,0,0,0,0.3884,0.3889,0.3943,0.3914,0.3912,0.3898,0.3898,0.3937,0.392,0.3898,0.3894,0.3896,0.391,0.3919,0.3922,0.3984,0.3919,0.3922,0.3924,0.3925,0.4104,0.4106,0,0,0,0,0,0,0.3886,0.3888,0.3943,0.3944,0.3891,0.3901,0.3902,0.3918,0.3919,0.3917,0.3898,0.3893,0.3915,0.3919,0.3923,0.4007,0.3923,0.3926,0.3927,0.4101,0.4104,0.4107,0,0,0,0,0,0,0.3885,0.3891,0.3942,0.3915,0.392,0.3905,0.3923,0.3919,0.3929,0.3919,0.3916,0.3911,0.3913,0.3918,0.3967,0.4007,0.3927,0.393,0.4098,0.4102,0.4106,0.4177,0,0,0,0,0,0,0.3883,0.3891,0.3918,0.3916,0.3922,0.3986,0.3926,0.3921,0.3934,0.3927,0.393,0.3929,0.3911,0.3963,0.397,0.401,0.3932,0.4094,0.4099,0.4104,0.4171,0.4183,0.4193,0,0,0,0,0,0.388,0.3938,0.392,0.3927,0.3955,0.3989,0.3992,0.397,0.3937,0.3965,0.3958,0.3928,0.4001,0.3968,0.3976,0.4017,0.4091,0.4098,0.4104,0.4166,0.418,0.4193,0,0,0,0,0,0,0.3947,0.3938,0.3917,0.3976,0.3983,0.3978,0.4012,0.3987,0.4005,0.3998,0.3971,0.3972,0.4026,0.4027,0.399,0.4087,0.4041,0.4049,0.4085,0.4099,0.411,0.4108,0.3935,0,0,0,0,0,0.3968,0.3996,0.3986,0.4039,0.4044,0.4028,0.4041,0.4024,0.4031,0.4034,0.4031,0.404,0.4065,0.4082,0.4104,0.417,0.417,0.4202,0.4214,0.4223,0.423,0.4265,0.4279,0.4128,0.4128,0.4128,0,0,0.4014,0.4012,0.4031,0.4053,0.4056,0.4085,0.4031,0.4064,0.4086,0.4039,0.4085,0.4083,0.4092,0.4149,0.4175,0.4151,0.4272,0.4231,0.4238,0.4241,0.4273,0.4287,0.43,0.4133,0.4132,0.4131,0,0,0.411,0.4112,0.4155,0.416,0.4165,0.4154,0.4165,0.4163,0.416,0.4205,0.4171,0.4197,0.424,0.4247,0.4256,0.4354,0.4327,0.4362,0.4421,0.4455,0.4467,0.4477,0.4512,0.4525,0.437,0.437,0.437,0,0.4166,0.4207,0.4182,0.4217,0.4228,0.4186,0.423,0.4236,0.425,0.4258,0.4231,0.4284,0.4287,0.4345,0.4369,0.4378,0.4389,0.4362,0.4467,0.4477,0.4487,0.4519,0.4533,0.4374,0.4374,0.4373,0.4373,0,0.4275,0.4304,0.4339,0.4352,0.4366,0.4406,0.4387,0.4405,0.4386,0.4378,0.4424,0.4426,0.4447,0.446,0.4442,0.4516,0.4501,0.4471,0.4424,0.4505,0.4536,0.4548,0.438,0.4379,0.4378,0.4377,0,0,0.4415,0.4411,0.4424,0.4429,0.4432,0.4455,0.4493,0.4512,0.4528,0.4539,0.457,0.4607,0.4579,0.459,0.4573,0.4603,0.468,0.4569,0.4569,0.4589,0.4761,0.4783,0.4798,0.4662,0.4664,0.4666,0.476,0,0.4509,0.4572,0.455,0.4615,0.4642,0.4603,0.4636,0.4641,0.4635,0.4657,0.465,0.4676,0.4637,0.4643,0.4671,0.4665,0.4714,0.4658,0.4691,0.4693,0.469,0.4814,0.4838,0.4926,0.4771,0.4773,0.4775,0,0.4627,0.4641,0.4709,0.4706,0.4717,0.4747,0.4762,0.4784,0.479,0.4783,0.4794,0.477,0.4808,0.4761,0.4812,0.4775,0.4787,0.4786,0.4789,0.4791,0.4739,0.4819,0.4953,0.4967,0.4793,0.4792,0.4791,0,0.4722,0.4758,0.4802,0.4808,0.4806,0.4828,0.4828,0.4831,0.4844,0.4859,0.4867,0.4886,0.4896,0.4912,0.4894,0.4861,0.4948,0.49,0.4944,0.4944,0.4964,0.4963,0.5102,0.4972,0.4972,0.4972,0.4972,0,0.4829,0.4872,0.4844,0.4872,0.4919,0.4893,0.4941,0.4937,0.494,0.4966,0.4933,0.4959,0.4934,0.4958,0.4944,0.4989,0.4994,0.499,0.4986,0.4993,0.4993,0.5,0.4994,0.4975,0.4975,0.4974,0.4973,0,0.4943,0.4926,0.4972,0.4966,0.4966,0.5001,0.4996,0.5021,0.5012,0.5046,0.5052,0.5038,0.5064,0.5047,0.5074,0.5065,0.5123,0.5111,0.5121,0.5117,0.5162,0.5158,0.5311,0.5329,0.5188,0.519,0.5191,0,0.5013,0.5044,0.5041,0.5056,0.5058,0.5083,0.5096,0.5071,0.5086,0.5094,0.5119,0.5142,0.5159,0.5203,0.5195,0.5216,0.5203,0.5255,0.5206,0.5212,0.5204,0.5202,0.5205,0.5265,0.5267,0.5268,0.5269,0,0.5138,0.5127,0.5146,0.5162,0.5178,0.519,0.5199,0.5213,0.5189,0.5207,0.5233,0.5246,0.5273,0.5296,0.5313,0.5314,0.5288,0.5285,0.5296,0.5303,0.5308,0.5306,0.5148,0.5281,0.528,0.5279,0.5279,0.5278,0.5231,0.5257,0.5259,0.5281,0.5285,0.5294,0.5318,0.531,0.5331,0.535,0.5334,0.5365,0.5369,0.5389,0.5394,0.5417,0.5396,0.5413,0.5417,0.5421,0.5427,0.5304,0.5421,0.542,0.542,0.542,0.5419,0,0.5354,0.5353,0.5373,0.5387,0.5404,0.5377,0.5385,0.5402,0.5429,0.5435,0.5452,0.5481,0.5503,0.5497,0.5517,0.5537,0.5526,0.5543,0.5541,0.5542,0.5445,0.5433,0.5552,0.5552,0.5552,0.5552,0.5552,0.5552,0.542,0.5463,0.5453,0.5497,0.5496,0.5524,0.5531,0.554,0.5544,0.5578,0.5596,0.5591,0.5592,0.5611,0.5631,0.5628,0.5637,0.5659,0.5653,0.5562,0.5549,0.5537,0.5525,0.5661,0.5661,0.5747,0.5748,0.5749]},{"header":{"parameterUnit":"m.s-1","parameterCategory":1,"la1":30.2991,"la2":30.254,"lo1":-89.0895,"lo2":-89.0444,"dy":0.0017,"dx":0.0017,"nx":28,"ny":28,"refTime":"2025-04-26T21:00:00:Z","depth":0,"parameterNumber":3,"parameterNumberName":"V-component_of_WINDS"},"data":[0,0,0,0,0,0,0,0,0,0,0,0,0,0,0,0,0,0,0,0,0,0,0,0,0,0,0,0,0,0,0,0,0,0,0,0,0,0,0,0,0,0,0,0,0,0,0,0,0,0,0,0,0,0,0,0,0,0,0.5248,0.5248,0,0.5255,0.5255,0.5255,0.5263,0.5263,0.5264,0.5264,0.5271,0.5272,0.5272,0,0,0,0,0,0,0,0,0,0,0,0,0,0.524,0.524,0.5248,0.5248,0.5248,0.5255,0.5255,0.5255,0.5263,0.5263,0.5264,0.5264,0.5271,0.5272,0.5272,0,0,0,0,0,0,0,0,0,0,0,0,0,0.5245,0.524,0.5248,0.5253,0.5253,0.5255,0.5255,0.5255,0.5263,0.5264,0.5264,0.5264,0.5271,0.5272,0.5272,0.5269,0,0,0.5272,0.5272,0,0,0,0,0,0,0,0,0.5245,0.5245,0.5252,0.5252,0.5253,0.5259,0.5255,0.526,0.5263,0.526,0.5264,0.5264,0.5267,0.5268,0.5269,0.527,0.527,0.5272,0.5272,0.5272,0.5272,0,0,0,0,0,0,0,0.5244,0.5245,0.5251,0.5252,0.5253,0.5254,0.5255,0.5256,0.5262,0.526,0.526,0.5261,0.5267,0.5268,0.5269,0.527,0.5272,0.5272,0.5272,0.5272,0.5269,0.5268,0,0,0,0,0,0,0.5243,0.5245,0.525,0.5251,0.5249,0.5254,0.5256,0.5257,0.5262,0.5263,0.5261,0.5262,0.5268,0.5269,0.5269,0.5266,0.5272,0.5273,0.5273,0.5269,0.5269,0.5268,0,0,0,0,0,0,0.5243,0.5244,0.525,0.5248,0.5249,0.5254,0.5256,0.5257,0.5258,0.5263,0.5264,0.5261,0.5268,0.5269,0.5269,0.5267,0.5273,0.5273,0.5269,0.5269,0.5268,0.526,0,0,0,0,0,0,0.5243,0.5244,0.5243,0.5248,0.5249,0.525,0.5255,0.5257,0.5258,0.5259,0.5263,0.5264,0.5268,0.5269,0.5269,0.5267,0.5273,0.5269,0.5269,0.5269,0.5261,0.526,0.5259,0,0,0,0,0,0.5242,0.524,0.5243,0.5243,0.5248,0.525,0.525,0.5255,0.5258,0.5257,0.526,0.5264,0.5267,0.5269,0.5269,0.5267,0.5269,0.5269,0.5269,0.5261,0.526,0.5259,0,0,0,0,0,0,0.5235,0.5241,0.5244,0.5243,0.5246,0.5251,0.525,0.5254,0.5256,0.5256,0.5262,0.5263,0.5262,0.5265,0.5267,0.5264,0.5269,0.5268,0.5263,0.5262,0.5261,0.526,0.5273,0,0,0,0,0,0.5234,0.5235,0.524,0.5239,0.524,0.5245,0.5246,0.5249,0.5252,0.5253,0.5257,0.5259,0.526,0.5261,0.5263,0.5261,0.5262,0.526,0.5259,0.5258,0.5258,0.5256,0.5255,0.5267,0.5267,0.5267,0,0,0.523,0.5234,0.5234,0.5237,0.524,0.524,0.5246,0.5246,0.5247,0.5253,0.5253,0.5256,0.5259,0.5258,0.5258,0.526,0.5254,0.5257,0.5257,0.5257,0.5256,0.5255,0.5254,0.5267,0.5267,0.5267,0,0,0.5225,0.5227,0.5227,0.5229,0.5232,0.5235,0.5235,0.5239,0.5241,0.5241,0.5246,0.5246,0.5249,0.5251,0.5252,0.5246,0.5249,0.5246,0.5241,0.524,0.5239,0.5238,0.5235,0.5234,0.5246,0.5246,0.5246,0,0.522,0.5221,0.5226,0.5226,0.5227,0.5232,0.5231,0.5233,0.5237,0.5238,0.524,0.5242,0.5245,0.5244,0.5243,0.5244,0.5243,0.5246,0.5238,0.5238,0.5237,0.5235,0.5234,0.5245,0.5245,0.5245,0.5245,0,0.5215,0.5216,0.5215,0.5218,0.5219,0.5218,0.5223,0.5223,0.5226,0.5229,0.5228,0.5232,0.5234,0.5234,0.5237,0.5233,0.5234,0.5237,0.5242,0.5235,0.5233,0.5232,0.5245,0.5245,0.5245,0.5245,0,0,0.5206,0.5211,0.521,0.5211,0.5215,0.5215,0.5215,0.5216,0.5216,0.5219,0.5218,0.5219,0.5222,0.5224,0.5227,0.5226,0.522,0.5229,0.5229,0.5227,0.5215,0.5212,0.5211,0.5222,0.5222,0.5222,0.5215,0,0.52,0.52,0.5203,0.5202,0.5202,0.5207,0.5206,0.5208,0.521,0.5211,0.5214,0.5214,0.5218,0.5219,0.5218,0.5221,0.5217,0.5221,0.5221,0.5221,0.522,0.521,0.5208,0.5201,0.5214,0.5214,0.5214,0,0.5194,0.5195,0.5193,0.5196,0.5197,0.5196,0.5197,0.5198,0.52,0.5202,0.5203,0.5206,0.5206,0.521,0.5209,0.5211,0.5211,0.5213,0.5213,0.5213,0.5217,0.521,0.5199,0.5197,0.5212,0.5213,0.5213,0,0.5187,0.5188,0.5187,0.5188,0.5191,0.519,0.5192,0.5194,0.5195,0.5196,0.5196,0.5197,0.5198,0.5199,0.5202,0.5205,0.52,0.5205,0.5202,0.5201,0.52,0.52,0.5189,0.5201,0.5201,0.5201,0.5201,0,0.518,0.5179,0.5183,0.5183,0.5181,0.5185,0.5183,0.5185,0.5187,0.5186,0.5191,0.519,0.5195,0.5195,0.5198,0.5196,0.5197,0.5198,0.5198,0.5197,0.5197,0.5197,0.5198,0.5201,0.5201,0.5201,0.5201,0,0.5172,0.5175,0.5174,0.5177,0.5178,0.5176,0.5179,0.5178,0.518,0.518,0.518,0.5183,0.5183,0.5187,0.5188,0.519,0.5187,0.5188,0.5186,0.5186,0.5182,0.5183,0.5171,0.5169,0.5182,0.5182,0.5182,0,0.5168,0.5166,0.5169,0.5169,0.517,0.517,0.517,0.5174,0.5174,0.5175,0.5174,0.5175,0.5175,0.5175,0.5177,0.5178,0.5179,0.5175,0.518,0.5178,0.5179,0.5179,0.5178,0.5174,0.5174,0.5174,0.5174,0,0.5159,0.516,0.5161,0.5161,0.5161,0.5161,0.5162,0.5162,0.5166,0.5166,0.5165,0.5166,0.5166,0.5166,0.5167,0.5168,0.5172,0.5172,0.5171,0.517,0.5168,0.5169,0.5183,0.5173,0.5173,0.5173,0.5173,0.5173,0.5152,0.5151,0.5153,0.5152,0.5153,0.5153,0.5153,0.5154,0.5154,0.5155,0.5157,0.5156,0.5158,0.5159,0.516,0.5159,0.5161,0.516,0.516,0.516,0.5159,0.5169,0.516,0.516,0.516,0.516,0.516,0,0.5144,0.5145,0.5144,0.5145,0.5144,0.5147,0.5148,0.5147,0.5147,0.5147,0.5147,0.5147,0.5147,0.5149,0.5149,0.5148,0.5149,0.5148,0.5148,0.5148,0.5157,0.5157,0.5147,0.5147,0.5147,0.5147,0.5147,0.5147,0.5139,0.5137,0.5138,0.5137,0.5138,0.5136,0.5137,0.5137,0.5137,0.5136,0.5136,0.5137,0.5139,0.5139,0.5139,0.5139,0.5139,0.5137,0.5138,0.5146,0.5147,0.5149,0.5149,0.5137,0.5137,0.5129,0.5129,0.5129]}]]